Content
SEND FEEDBACK

Daily
Averages
Monthly
Summary
United States of America

GREENSBURG, INDIANA


Home > North America > United States > Indiana
Elevation: 949 feet     Latitude: 39 20N     Longitude: 085 28W

WEATHER
 
SELECT A DAY
Number of Records: 172,997;   Date Range: 10/15/98 - 8/12/14
 
SHARE

PRINT THIS DATA

[ ← Previous Day ]
WEATHER ALMANAC - MAY 13, 2014
[ Next Day → ]
[ °C ]   °F
Weather ElementAverageHighLow
Temperature71.2 °F84.9 °F (1:53 pm)62.1 °F (11:53 pm)
Dewpoint63.9 °F66.9 °F (9:53 am)57.9 °F (11:53 pm)
Humidity78.3 %90 % (10:26 pm)51 % (1:53 pm)
Barometer30.02 in30.10 in (10:26 pm)29.95 in (3:53 am)
Wind Speed14.6 mph28.8 mph (2:44 pm)
Wind Gust43.7 mph (2:44 pm)
Weather ElementAverage
Visibility8.4 mi
Wind DirectionWSW (261.2 °)

Weather ElementTotal
Precipitation1.44 in
Cooling Degree Days8.5 (Base 65)
Growing Degree Days23.5 (Base 50)
Averaged from 34 records on May 13, 2014
WEATHER CONDITIONS BREAKOUT
WIND DIRECTION BREAKOUT
WEATHER BY HOUR - MAY 13, 2014
[ °C ]   °F
Local TimeTemperatureDewpointHumidityBarometerVisibilityWind DirectionWind SpeedGust SpeedPrecipitationEventsConditions
2:53 AM71.1 °F64.9 °F81 %29.97 in10.0 miSSE (160°)11.5 mphClear
3:53 AM73.0 °F64.9 °F76 %29.95 in10.0 miSouth (180°)12.7 mphClear
4:53 AM72.0 °F64.9 °F78 %29.95 in10.0 miSouth (180°)16.1 mphPartly Cloudy
5:53 AM71.1 °F64.9 °F81 %29.96 in10.0 miSouth (190°)11.5 mphClear
6:53 AM71.1 °F64.9 °F81 %29.97 in10.0 miSouth (180°)11.5 mphMostly Cloudy
7:53 AM73.0 °F64.9 °F76 %29.99 in10.0 miSouth (180°)13.8 mphOvercast
9:02 AM75.0 °F66.0 °F73 %30.01 in10.0 miSouth (190°)16.1 mph23.0 mphScattered Clouds
9:53 AM75.9 °F66.9 °F74 %29.99 in10.0 miSSW (200°)18.4 mphMostly Cloudy
12:53 PM82.0 °F66.0 °F58 %29.99 in10.0 miSouth (190°)18.4 mph31.1 mphMostly Cloudy
1:53 PM84.9 °F64.9 °F51 %29.98 in10.0 miSouth (190°)24.2 mph34.5 mphScattered Clouds
2:44 PM75.0 °F61.0 °F62 %30.02 in10.0 miWest (260°)28.8 mph43.7 mphThunderstormMostly Cloudy
2:49 PM71.6 °F64.4 °F78 %30.03 in1.5 miWest (260°)24.2 mph38.0 mph0.12 inRain-ThunderstormThunderstorms and Rain
2:53 PM70.0 °F64.9 °F84 %30.01 in0.5 miWest (260°)20.7 mph36.8 mph0.27 inRain-ThunderstormHeavy Thunderstorms and Rain
3:03 PM70.0 °F64.9 °F84 %30.02 in2.0 miWest (270°)17.3 mph0.07 inRain-ThunderstormHeavy Thunderstorms and Rain
3:11 PM71.1 °F66.0 °F84 %30.03 in7.0 miWest (260°)17.3 mph0.08 inRain-ThunderstormLight Rain
3:53 PM73.0 °F66.9 °F81 %30.00 in10.0 miWSW (240°)6.9 mph0.09 inThunderstormPartly Cloudy
4:02 PM75.0 °F66.9 °F76 %30.01 in10.0 miWSW (250°)11.5 mphClear
4:53 PM78.1 °F66.9 °F68 %29.99 in10.0 miWSW (250°)13.8 mphPartly Cloudy
5:53 PM78.1 °F64.9 °F64 %29.99 in10.0 miWest (260°)10.4 mphPartly Cloudy
6:53 PM77.0 °F64.0 °F64 %29.98 in10.0 miWest (270°)8.1 mphPartly Cloudy
7:44 PM71.1 °F64.9 °F81 %30.00 in2.5 miNW (320°)16.1 mph0.06 inRain-ThunderstormHeavy Rain
7:53 PM71.1 °F64.9 °F81 %30.01 in2.5 miNW (310°)15.0 mph0.10 inRain-ThunderstormThunderstorms and Rain
8:14 PM70.0 °F64.9 °F84 %30.03 in8.0 miNW (310°)20.7 mph25.3 mph0.06 inRain-ThunderstormLight Thunderstorms and Rain
8:22 PM69.1 °F64.0 °F84 %30.05 in10.0 miWNW (290°)16.1 mph25.3 mph0.06 inThunderstormThunderstorm
8:34 PM68.0 °F63.0 °F84 %30.05 in10.0 miNW (310°)11.5 mph0.06 inThunderstormThunderstorm
8:41 PM68.0 °F63.0 °F84 %30.05 in10.0 miNW (320°)16.1 mph0.06 inRainLight Rain
8:53 PM68.0 °F62.1 °F81 %30.05 in10.0 miNW (310°)11.5 mph0.06 inRainLight Rain
9:17 PM66.9 °F62.1 °F84 %30.08 in9.0 miNW (310°)10.4 mph0.02 inRainLight Rain
9:42 PM66.0 °F62.1 °F87 %30.09 in6.0 miNW (320°)11.5 mph0.10 inRainLight Rain
9:53 PM64.9 °F61.0 °F87 %30.09 in5.0 miNNW (330°)11.5 mph0.14 inRainRain
10:26 PM63.0 °F60.1 °F90 %30.10 in10.0 miNNW (340°)12.7 mph0.03 inOvercast
10:45 PM63.0 °F59.0 °F87 %30.10 in10.0 miNNW (330°)9.2 mph0.03 inRainLight Rain
10:53 PM63.0 °F59.0 °F87 %30.08 in10.0 miNNW (330°)10.4 mph0.03 inMostly Cloudy
11:53 PM62.1 °F57.9 °F86 %30.09 in10.0 miNNW (330°)10.4 mph0.00 inPartly Cloudy
Hourly data recorded from KGEZ, located miles away from Greensburg, Indiana







STORIES FROM OUR PARTNERS